Location: Mount Cross
(36.6390°N, 79.4878°W)
Time: 08:57:54
(UTC+00:00)

Tiros 1 - Pass Details

Date: 01 April 2023
Orbit: 627 x 661 km, 48.4° (Epoch: 02 June)

Event Time Altitude Azimuth Distance (km) Brightness Sun altitude
Exits shadow 09:41:07 16° 304° (NW) 1,727 9.0 -17.1°
Maximum altitude 09:43:43 24° 346° (NNW) 1,375 8.9 -16.6°
Drops below altitude 10° 09:47:35 10° 40° (NE) 2,078 10.7 -15.8°
Sets 09:50:21 0° 55° (NE) 2,990 12.1 -15.3°
